[[{"header":{"parameterUnit":"m.s-1","parameterCategory":2,"la1":30.2991,"la2":30.254,"lo1":-89.0895,"lo2":-89.0444,"dy":0.0017,"dx":0.0017,"nx":28,"ny":28,"refTime":"2025-05-28T09:00:00:Z","depth":"0","parameterNumber":2,"parameterNumberName":"U-component_of_CURRENTS"},"data":[0,0,0,0,0,0,0,0,0,0,0,0,0,0,0,0,0,0,0,0,0,0,0,0,0,0,0,0,0,0,0,0,0,0,0,0,0,0,0,0,0,0,0,0,0,0,0,0,0,0,0,0,0,0,0,0,0,0,0.3473,0.3474,0,0.3473,0.3473,0.3473,0.3429,0.3428,0.3427,0.3426,0.3427,0.3428,0.3429,0,0,0,0,0,0,0,0,0,0,0,0,0,0.3449,0.345,0.3473,0.3474,0.3474,0.3473,0.3473,0.3473,0.3429,0.3428,0.3427,0.3426,0.3427,0.3428,0.3429,0,0,0,0,0,0,0,0,0,0,0,0,0,0.3452,0.345,0.3473,0.3455,0.3453,0.3473,0.3473,0.3473,0.3429,0.3428,0.3426,0.3425,0.3427,0.3428,0.3429,0.3461,0,0,0.3433,0.3433,0,0,0,0,0,0,0,0,0.3452,0.3453,0.3457,0.3456,0.3454,0.3453,0.3465,0.347,0.3429,0.3434,0.3426,0.3425,0.3439,0.3439,0.3437,0.3461,0.3461,0.3433,0.3434,0.3434,0.3434,0,0,0,0,0,0,0,0.3452,0.3452,0.347,0.3458,0.3456,0.3451,0.345,0.3466,0.3441,0.3434,0.3431,0.3438,0.3438,0.3436,0.3437,0.3461,0.3433,0.3434,0.3435,0.3435,0.3582,0.3585,0,0,0,0,0,0,0.346,0.3452,0.347,0.347,0.3454,0.3453,0.3451,0.3452,0.3441,0.3439,0.3439,0.3436,0.3434,0.3435,0.3437,0.3528,0.3434,0.3435,0.3436,0.3579,0.3583,0.3586,0,0,0,0,0,0,0.3459,0.3461,0.347,0.3464,0.3465,0.3455,0.3456,0.3452,0.3451,0.3445,0.3442,0.3441,0.3433,0.3435,0.3466,0.3526,0.3436,0.3437,0.3575,0.358,0.3585,0.3678,0,0,0,0,0,0,0.3458,0.3461,0.3465,0.3465,0.3466,0.3493,0.3457,0.3453,0.3458,0.3454,0.3447,0.3445,0.3433,0.3464,0.3467,0.3526,0.3438,0.3571,0.3578,0.3583,0.3671,0.3685,0.3697,0,0,0,0,0,0.3457,0.3467,0.3465,0.3468,0.3472,0.3495,0.3496,0.3481,0.346,0.3472,0.3469,0.3445,0.3505,0.3467,0.347,0.3531,0.3568,0.3576,0.3583,0.3665,0.3682,0.3697,0,0,0,0,0,0,0.3456,0.3464,0.3462,0.3473,0.349,0.3489,0.3499,0.3489,0.3495,0.349,0.3473,0.3473,0.3532,0.352,0.3479,0.3595,0.3539,0.3547,0.3601,0.3617,0.363,0.3649,0.3439,0,0,0,0,0,0.3461,0.3472,0.3484,0.3496,0.3507,0.3505,0.3512,0.3507,0.3512,0.3512,0.3508,0.3522,0.3566,0.3577,0.3604,0.3654,0.3689,0.3701,0.3715,0.3726,0.3747,0.3874,0.3901,0.361,0.361,0.361,0,0,0.3463,0.3472,0.3477,0.3498,0.3507,0.3538,0.3505,0.3525,0.3558,0.3515,0.3552,0.3567,0.3592,0.3657,0.3683,0.365,0.3826,0.3735,0.3744,0.3759,0.3885,0.3913,0.3938,0.3615,0.3614,0.3613,0,0,0.348,0.3485,0.3501,0.3524,0.355,0.3562,0.3572,0.3582,0.3594,0.3633,0.3632,0.3681,0.3711,0.3757,0.3783,0.3889,0.3897,0.39,0.3976,0.4099,0.4124,0.4147,0.4216,0.4244,0.39,0.3901,0.3901,0,0.3483,0.3505,0.3513,0.3543,0.3573,0.3578,0.3617,0.3641,0.366,0.3698,0.3657,0.3771,0.377,0.3898,0.3927,0.3921,0.3976,0.3906,0.4118,0.4141,0.4162,0.4228,0.4257,0.3906,0.3905,0.3905,0.3904,0,0.3511,0.3539,0.3556,0.3601,0.3638,0.3672,0.3717,0.3761,0.3772,0.3795,0.3905,0.3921,0.3995,0.4009,0.3991,0.4158,0.4141,0.4124,0.4073,0.4197,0.4258,0.4287,0.3914,0.3912,0.391,0.3909,0,0,0.3489,0.3561,0.3566,0.3608,0.3673,0.3708,0.3798,0.3885,0.3962,0.3988,0.4097,0.4163,0.4174,0.4208,0.4217,0.4302,0.4475,0.4275,0.4279,0.4338,0.4732,0.4563,0.4578,0.4504,0.451,0.4515,0.4708,0,0.351,0.3575,0.3613,0.3698,0.3742,0.381,0.3898,0.3983,0.4051,0.4156,0.4216,0.4312,0.4254,0.4307,0.4392,0.4468,0.456,0.4423,0.4608,0.4613,0.4445,0.4609,0.432,0.4455,0.4736,0.4741,0.4744,0,0.3512,0.3569,0.3642,0.3767,0.3796,0.3853,0.4019,0.4102,0.426,0.4318,0.4434,0.4478,0.4624,0.4547,0.4757,0.4678,0.472,0.4755,0.4763,0.4596,0.45,0.4382,0.4497,0.4412,0.4789,0.4785,0.4782,0,0.348,0.3587,0.365,0.3687,0.3826,0.3896,0.3984,0.4142,0.425,0.4437,0.4539,0.4691,0.4783,0.4895,0.4939,0.4886,0.5146,0.5084,0.4975,0.4961,0.4745,0.4702,0.4792,0.5252,0.5252,0.5251,0.5251,0,0.3475,0.3527,0.3639,0.3675,0.3796,0.3891,0.4045,0.4161,0.4348,0.4488,0.4619,0.4752,0.488,0.5016,0.5045,0.5099,0.5245,0.5031,0.5026,0.4764,0.4722,0.4655,0.4615,0.5258,0.5257,0.5255,0.5254,0,0.3425,0.3484,0.3578,0.3726,0.3775,0.3865,0.4071,0.4189,0.4369,0.4571,0.4644,0.4852,0.5018,0.5122,0.5291,0.5216,0.5141,0.5269,0.4915,0.4863,0.4609,0.4582,0.4521,0.4404,0.5191,0.5188,0.5186,0,0.3405,0.344,0.3598,0.3662,0.3727,0.3873,0.3978,0.4174,0.43,0.461,0.4696,0.4923,0.5024,0.5201,0.513,0.5172,0.5084,0.4917,0.4748,0.4595,0.4567,0.4421,0.4318,0.4508,0.4501,0.4494,0.4489,0,0.3402,0.3449,0.3542,0.3659,0.3761,0.3883,0.4034,0.4133,0.4369,0.4523,0.4712,0.4821,0.4946,0.4827,0.4849,0.4825,0.4651,0.4785,0.4756,0.4154,0.3879,0.3759,0.4362,0.4434,0.4439,0.4443,0.4446,0.4449,0.3416,0.3474,0.3582,0.3675,0.3777,0.3853,0.3892,0.404,0.4185,0.4317,0.4536,0.4549,0.455,0.4504,0.4465,0.4206,0.4267,0.4047,0.4067,0.3966,0.372,0.4165,0.4139,0.4142,0.4145,0.4148,0.4151,0,0.3445,0.3498,0.3591,0.3684,0.3711,0.3783,0.3894,0.3872,0.392,0.4033,0.4112,0.4048,0.3913,0.39,0.3702,0.3528,0.3365,0.3456,0.3221,0.3189,0.3706,0.354,0.3223,0.3223,0.3223,0.3223,0.3223,0.3223,0.3479,0.3542,0.3561,0.3578,0.3606,0.357,0.357,0.3536,0.3547,0.345,0.3352,0.3386,0.3519,0.3439,0.3223,0.3122,0.2957,0.2739,0.2874,0.3265,0.3323,0.3377,0.3215,0.2835,0.2835,0.2159,0.2154,0.215]},{"header":{"parameterUnit":"m.s-1","parameterCategory":2,"la1":30.2991,"la2":30.254,"lo1":-89.0895,"lo2":-89.0444,"dy":0.0017,"dx":0.0017,"nx":28,"ny":28,"refTime":"2025-05-28T09:00:00:Z","depth":"0","parameterNumber":3,"parameterNumberName":"V-component_of_CURRENTS"},"data":[0,0,0,0,0,0,0,0,0,0,0,0,0,0,0,0,0,0,0,0,0,0,0,0,0,0,0,0,0,0,0,0,0,0,0,0,0,0,0,0,0,0,0,0,0,0,0,0,0,0,0,0,0,0,0,0,0,0,0.0199,0.0199,0,0.0172,0.0172,0.0171,0.0146,0.0146,0.0146,0.0145,0.0102,0.0101,0.01,0,0,0,0,0,0,0,0,0,0,0,0,0,0.019,0.0191,0.0199,0.0199,0.0199,0.0172,0.0172,0.0171,0.0146,0.0146,0.0145,0.0145,0.0103,0.0101,0.01,0,0,0,0,0,0,0,0,0,0,0,0,0,0.018,0.0191,0.0199,0.0185,0.0183,0.0172,0.0172,0.0171,0.0146,0.0146,0.0145,0.0145,0.0103,0.0101,0.01,0.0095,0,0,0.0095,0.0095,0,0,0,0,0,0,0,0,0.0181,0.018,0.0187,0.0186,0.0184,0.0164,0.0153,0.0145,0.0146,0.0158,0.0145,0.0145,0.0123,0.012,0.0112,0.0093,0.0091,0.0095,0.0094,0.0094,0.0093,0,0,0,0,0,0,0,0.0181,0.0181,0.0187,0.0187,0.0185,0.0166,0.0164,0.0151,0.014,0.0157,0.0156,0.0156,0.0121,0.0114,0.0111,0.009,0.0095,0.0094,0.0093,0.0092,0.0098,0.0099,0,0,0,0,0,0,0.0191,0.0182,0.0188,0.0186,0.0184,0.0167,0.0165,0.0169,0.0141,0.0137,0.0156,0.0155,0.0117,0.0113,0.011,0.0136,0.0094,0.0092,0.0091,0.0097,0.0099,0.01,0,0,0,0,0,0,0.0191,0.0192,0.0189,0.0184,0.0183,0.0168,0.0172,0.0169,0.0164,0.014,0.0136,0.0156,0.0116,0.0112,0.011,0.0133,0.0091,0.009,0.0096,0.0098,0.0099,0.0168,0,0,0,0,0,0,0.0191,0.0192,0.0198,0.0185,0.0184,0.0192,0.0172,0.0168,0.0165,0.0163,0.0139,0.0134,0.0116,0.0113,0.0109,0.013,0.0089,0.0095,0.0097,0.0099,0.0164,0.0172,0.0178,0,0,0,0,0,0.0191,0.0206,0.0198,0.0199,0.0192,0.0193,0.0191,0.0177,0.0166,0.017,0.0157,0.0135,0.0123,0.0113,0.0108,0.0129,0.0094,0.0096,0.0098,0.0161,0.017,0.0178,0,0,0,0,0,0,0.0204,0.0205,0.0196,0.021,0.0205,0.019,0.0194,0.0182,0.0173,0.0172,0.0145,0.014,0.0148,0.0129,0.0118,0.0138,0.0106,0.0108,0.0156,0.0164,0.0171,0.0195,0.0088,0,0,0,0,0,0.021,0.0221,0.0214,0.0224,0.0226,0.0209,0.0207,0.0199,0.019,0.0185,0.0169,0.0157,0.0153,0.0151,0.0141,0.0149,0.0142,0.0161,0.0168,0.0174,0.0191,0.0203,0.0213,0.0108,0.0108,0.0108,0,0,0.0217,0.0219,0.0224,0.0227,0.0222,0.0238,0.0207,0.0212,0.0228,0.0182,0.0198,0.0177,0.016,0.0172,0.0175,0.0161,0.0199,0.0177,0.0183,0.0197,0.0207,0.0217,0.0226,0.0109,0.0109,0.0109,0,0,0.0244,0.0239,0.0262,0.0265,0.0266,0.0259,0.0264,0.0255,0.0254,0.0263,0.0239,0.0238,0.0224,0.0224,0.0221,0.026,0.0232,0.0251,0.0308,0.032,0.0328,0.0336,0.0335,0.0342,0.0258,0.0258,0.0258,0,0.0253,0.0283,0.0267,0.0292,0.0306,0.0275,0.0307,0.0302,0.0294,0.0308,0.0279,0.0285,0.0256,0.0292,0.0297,0.0278,0.0272,0.0277,0.033,0.0337,0.0344,0.034,0.0347,0.0261,0.0261,0.0261,0.026,0,0.0303,0.0325,0.034,0.0365,0.0374,0.0395,0.0392,0.0401,0.0391,0.0389,0.0415,0.0381,0.0394,0.0375,0.0341,0.0382,0.0358,0.0334,0.031,0.0359,0.0351,0.0357,0.0267,0.0265,0.0264,0.0263,0,0,0.0329,0.037,0.0375,0.0408,0.0419,0.0438,0.0467,0.0496,0.0538,0.0513,0.0576,0.0538,0.0522,0.0517,0.0482,0.0475,0.0497,0.0424,0.0423,0.0426,0.0515,0.0453,0.0453,0.048,0.0482,0.0483,0.0489,0,0.0376,0.0448,0.0449,0.0516,0.0558,0.0549,0.0589,0.0608,0.0615,0.0665,0.0637,0.0673,0.0578,0.0597,0.0574,0.0531,0.0517,0.0497,0.0465,0.0465,0.0406,0.046,0.0451,0.0452,0.0494,0.0495,0.0496,0,0.0427,0.0475,0.0552,0.0621,0.0639,0.0669,0.0741,0.0776,0.0821,0.0833,0.0851,0.0833,0.0838,0.0749,0.0696,0.0688,0.0607,0.0552,0.0551,0.0477,0.0414,0.0411,0.046,0.0329,0.0505,0.0504,0.0503,0,0.0472,0.0546,0.0615,0.0637,0.0705,0.0744,0.0783,0.0831,0.09,0.0956,0.1024,0.0996,0.1022,0.0928,0.0797,0.0758,0.0732,0.0671,0.0536,0.053,0.051,0.0499,0.0434,0.063,0.063,0.063,0.063,0,0.0528,0.0584,0.0646,0.0689,0.0794,0.0813,0.0929,0.096,0.1052,0.1181,0.1126,0.1227,0.1066,0.1028,0.0877,0.0737,0.0798,0.0564,0.0537,0.0531,0.0523,0.0394,0.0285,0.063,0.063,0.063,0.063,0,0.0568,0.0602,0.0696,0.0783,0.0819,0.0899,0.1035,0.1133,0.1195,0.1369,0.1408,0.1417,0.1367,0.1188,0.1043,0.0857,0.0625,0.0646,0.0637,0.0608,0.0328,0.0223,0.0109,0.0041,0.0507,0.0505,0.0504,0,0.0595,0.0647,0.0769,0.0847,0.0891,0.1013,0.1117,0.1201,0.1326,0.1511,0.1622,0.1613,0.1649,0.1392,0.1059,0.0786,0.0618,0.0567,0.0476,0.0328,0.0192,0.0127,0.0074,0.0477,0.0476,0.0475,0.0474,0,0.066,0.0698,0.0786,0.0944,0.1059,0.1206,0.136,0.148,0.1627,0.1793,0.1993,0.2036,0.1769,0.148,0.1043,0.0839,0.045,0.0533,0.0404,0.0183,0.0089,0.0007,0.0446,0.0465,0.0466,0.0467,0.0467,0.0467,0.0712,0.079,0.091,0.106,0.1202,0.1392,0.1538,0.1732,0.1967,0.223,0.2251,0.2335,0.1865,0.1272,0.0969,0.0385,0.0372,0.0205,0.0098,0.0054,-0.0041,0.036,0.0326,0.0326,0.0326,0.0326,0.0327,0,0.0789,0.0883,0.1025,0.1213,0.1382,0.144,0.1705,0.1884,0.219,0.2385,0.256,0.2349,0.1795,0.1216,0.0411,0.0028,-0.0093,-0.0166,-0.0242,-0.027,0.0123,0.0093,-0.002,-0.002,-0.002,-0.0019,-0.0019,-0.0019,0.0839,0.0981,0.1054,0.1329,0.1468,0.1711,0.1872,0.2155,0.2344,0.2602,0.2622,0.26,0.2123,0.0745,-0.0126,-0.0317,-0.0546,-0.0633,-0.0732,-0.0457,-0.0429,-0.0403,-0.0453,-0.0677,-0.0679,-0.1049,-0.1053,-0.1056]}],[{"header":{"parameterUnit":"m.s-1","parameterCategory":2,"la1":30.2991,"la2":30.254,"lo1":-89.0895,"lo2":-89.0444,"dy":0.0017,"dx":0.0017,"nx":28,"ny":28,"refTime":"2025-05-28T09:00:00:Z","depth":"2","parameterNumber":2,"parameterNumberName":"U-component_of_CURRENTS"},"data":[0,0,0,0,0,0,0,0,0,0,0,0,0,0,0,0,0,0,0,0,0,0,0,0,0,0,0,0,0,0,0,0,0,0,0,0,0,0,0,0,0,0,0,0,0,0,0,0,0,0,0,0,0,0,0,0,0,0,0.29,0.29,0,0.2907,0.2907,0.2907,0.2892,0.2891,0.2891,0.2891,0.291,0.2911,0.2912,0,0,0,0,0,0,0,0,0,0,0,0,0,0.2877,0.2877,0.29,0.29,0.29,0.2907,0.2907,0.2907,0.2892,0.2891,0.2891,0.2891,0.291,0.2911,0.2912,0,0,0,0,0,0,0,0,0,0,0,0,0,0.2882,0.2877,0.2899,0.2896,0.2896,0.2907,0.2907,0.2907,0.2892,0.2891,0.2891,0.2891,0.291,0.2911,0.2912,0.2923,0,0,0.2915,0.2915,0,0,0,0,0,0,0,0,0.2882,0.2883,0.2896,0.2897,0.2897,0.2901,0.2906,0.2914,0.2892,0.289,0.2891,0.2891,0.2911,0.2912,0.2909,0.2924,0.2925,0.2915,0.2916,0.2916,0.2916,0,0,0,0,0,0,0,0.2882,0.2883,0.2899,0.2897,0.2897,0.2896,0.2896,0.2907,0.2899,0.289,0.289,0.2896,0.2911,0.2908,0.2909,0.2925,0.2915,0.2916,0.2917,0.2917,0.3036,0.3039,0,0,0,0,0,0,0.2888,0.2882,0.2899,0.2899,0.2893,0.2897,0.2897,0.2897,0.2899,0.29,0.2896,0.2895,0.2906,0.2908,0.291,0.2993,0.2916,0.2917,0.2918,0.3034,0.3037,0.304,0,0,0,0,0,0,0.2887,0.2889,0.2898,0.2894,0.2896,0.2898,0.2898,0.2897,0.2906,0.2904,0.2905,0.2908,0.2906,0.2908,0.2937,0.2991,0.2918,0.2918,0.3031,0.3035,0.3038,0.3115,0,0,0,0,0,0,0.2887,0.2889,0.2896,0.2894,0.2896,0.2919,0.2899,0.2898,0.2912,0.2911,0.2914,0.2915,0.2906,0.2936,0.2938,0.2991,0.2919,0.3027,0.3032,0.3037,0.3109,0.3121,0.3131,0,0,0,0,0,0.2886,0.2894,0.2896,0.2899,0.2904,0.2921,0.2922,0.292,0.2913,0.2925,0.2929,0.2915,0.2969,0.2938,0.294,0.2995,0.3025,0.3031,0.3037,0.3104,0.3119,0.3131,0,0,0,0,0,0,0.2887,0.2893,0.2896,0.2905,0.2921,0.292,0.2932,0.293,0.2941,0.2945,0.2934,0.2936,0.2989,0.2981,0.2947,0.3047,0.3001,0.3007,0.3052,0.3065,0.3076,0.3098,0.292,0,0,0,0,0,0.2892,0.2901,0.2911,0.2923,0.2932,0.2936,0.2944,0.2947,0.2955,0.2959,0.2965,0.2982,0.3014,0.3027,0.3048,0.309,0.3117,0.3133,0.3144,0.3153,0.3176,0.3275,0.3297,0.3059,0.3058,0.3058,0,0,0.2897,0.2904,0.2909,0.2925,0.2935,0.2957,0.2939,0.2962,0.2987,0.2961,0.3,0.3019,0.3034,0.3089,0.3113,0.3087,0.3232,0.3161,0.3168,0.3186,0.3283,0.3307,0.3327,0.3062,0.3062,0.3061,0,0,0.2911,0.2919,0.2932,0.2947,0.2973,0.2982,0.2994,0.3009,0.3024,0.3061,0.3065,0.3119,0.3141,0.318,0.3198,0.3284,0.3289,0.3291,0.3362,0.3458,0.3479,0.3497,0.3545,0.3567,0.3295,0.3295,0.3295,0,0.292,0.2932,0.2942,0.2962,0.2983,0.2997,0.3025,0.3045,0.3071,0.3109,0.3086,0.3194,0.3194,0.3295,0.332,0.3312,0.3349,0.3305,0.3473,0.3492,0.351,0.3554,0.3578,0.3299,0.3299,0.3299,0.3298,0,0.2938,0.2957,0.297,0.3002,0.3031,0.3056,0.3091,0.3132,0.3156,0.3187,0.3292,0.3312,0.3386,0.3397,0.3375,0.3513,0.3492,0.3476,0.3438,0.3538,0.3578,0.3601,0.3306,0.3304,0.3303,0.3302,0,0,0.2929,0.2974,0.2978,0.3005,0.3053,0.308,0.3147,0.3221,0.3288,0.3335,0.3437,0.3498,0.3535,0.356,0.3569,0.3639,0.3773,0.3609,0.3612,0.3653,0.3965,0.3798,0.3806,0.3791,0.3795,0.3799,0.3936,0,0.2941,0.2979,0.3008,0.3065,0.309,0.3146,0.3214,0.3291,0.3356,0.3458,0.3531,0.3625,0.3591,0.3644,0.3717,0.3771,0.3841,0.3736,0.3865,0.3869,0.3706,0.383,0.3511,0.3594,0.3959,0.3962,0.3965,0,0.2939,0.2971,0.3018,0.3107,0.3129,0.3176,0.3308,0.3373,0.352,0.3581,0.3705,0.376,0.3897,0.3839,0.401,0.3948,0.3969,0.3992,0.3998,0.3835,0.3746,0.3557,0.3621,0.4003,0.4,0.3998,0.3995,0,0.2908,0.2978,0.3018,0.304,0.3143,0.3203,0.3278,0.3417,0.3506,0.3679,0.3779,0.3927,0.4027,0.4108,0.4138,0.4104,0.4293,0.4254,0.4126,0.4112,0.3862,0.3817,0.438,0.438,0.438,0.4379,0.4379,0,0.2891,0.2926,0.3009,0.3027,0.312,0.3201,0.3324,0.3426,0.3595,0.3721,0.3851,0.3971,0.4104,0.4209,0.4216,0.4237,0.4368,0.417,0.4157,0.3874,0.3831,0.4198,0.4175,0.4385,0.4383,0.4382,0.4382,0,0.2838,0.2886,0.2945,0.3056,0.3099,0.317,0.3341,0.3439,0.3605,0.378,0.3851,0.4058,0.4188,0.4268,0.4393,0.4329,0.4362,0.4322,0.395,0.3889,0.4099,0.4079,0.4238,0.4234,0.423,0.4227,0.4225,0,0.2812,0.2827,0.2941,0.2995,0.3047,0.316,0.325,0.3425,0.3521,0.3807,0.3883,0.4087,0.4149,0.4263,0.4219,0.4218,0.4303,0.3891,0.3764,0.4124,0.4096,0.4081,0.4066,0.3467,0.3458,0.3451,0.3446,0,0.2772,0.281,0.2869,0.2959,0.3052,0.314,0.3266,0.3321,0.3532,0.3669,0.3815,0.3893,0.4023,0.3868,0.3869,0.3817,0.3865,0.3745,0.4279,0.3527,0.3401,0.3371,0.3382,0.3383,0.339,0.3394,0.3397,0.34,0.2756,0.2782,0.2852,0.2936,0.3027,0.3067,0.3076,0.3188,0.328,0.3394,0.3577,0.3578,0.363,0.3458,0.3343,0.3262,0.3532,0.3358,0.3379,0.3407,0.3268,0.314,0.3047,0.3051,0.3055,0.3058,0.306,0,0.2726,0.2764,0.2826,0.2889,0.2896,0.3003,0.3052,0.2993,0.2984,0.312,0.3174,0.2926,0.2824,0.288,0.2668,0.2643,0.2614,0.2519,0.2468,0.2533,0.259,0.2408,0.1959,0.1956,0.1952,0.1949,0,0,0.2717,0.2741,0.2753,0.2731,0.2769,0.2741,0.272,0.2656,0.2659,0.2547,0.2529,0.2722,0.2812,0.2372,0.2303,0.2097,0.2294,0.2002,0.2894,0.2903,0.2955,0.309,0.2884,0,0,0,0,0]},{"header":{"parameterUnit":"m.s-1","parameterCategory":2,"la1":30.2991,"la2":30.254,"lo1":-89.0895,"lo2":-89.0444,"dy":0.0017,"dx":0.0017,"nx":28,"ny":28,"refTime":"2025-05-28T09:00:00:Z","depth":"2","parameterNumber":3,"parameterNumberName":"V-component_of_CURRENTS"},"data":[0,0,0,0,0,0,0,0,0,0,0,0,0,0,0,0,0,0,0,0,0,0,0,0,0,0,0,0,0,0,0,0,0,0,0,0,0,0,0,0,0,0,0,0,0,0,0,0,0,0,0,0,0,0,0,0,0,0,0.0116,0.0116,0,0.0091,0.0091,0.009,0.007,0.0069,0.0069,0.0069,0.0034,0.0033,0.0032,0,0,0,0,0,0,0,0,0,0,0,0,0,0.0108,0.0108,0.0116,0.0116,0.0116,0.0091,0.0091,0.009,0.007,0.0069,0.0069,0.0069,0.0034,0.0033,0.0032,0,0,0,0,0,0,0,0,0,0,0,0,0,0.0099,0.0108,0.0116,0.0104,0.0102,0.0091,0.0091,0.009,0.007,0.0069,0.0069,0.0069,0.0034,0.0033,0.0032,0.0026,0,0,0.0028,0.0027,0,0,0,0,0,0,0,0,0.0099,0.0099,0.0106,0.0104,0.0103,0.0085,0.0075,0.0069,0.007,0.008,0.0069,0.0069,0.0051,0.0048,0.0042,0.0024,0.0022,0.0027,0.0027,0.0026,0.0026,0,0,0,0,0,0,0,0.01,0.01,0.0105,0.0105,0.0104,0.0086,0.0085,0.0073,0.0065,0.0079,0.0078,0.0078,0.005,0.0043,0.0041,0.0022,0.0027,0.0026,0.0025,0.0025,0.0023,0.0023,0,0,0,0,0,0,0.0108,0.01,0.0105,0.0104,0.0103,0.0087,0.0085,0.0089,0.0065,0.0062,0.0078,0.0077,0.0045,0.0042,0.0039,0.0061,0.0026,0.0025,0.0024,0.0022,0.0023,0.0024,0,0,0,0,0,0,0.0108,0.0109,0.0106,0.0102,0.0101,0.0088,0.0092,0.0089,0.0085,0.0065,0.0061,0.0078,0.0045,0.0041,0.004,0.0058,0.0024,0.0023,0.0021,0.0022,0.0023,0.0085,0,0,0,0,0,0,0.0108,0.011,0.0115,0.0103,0.0102,0.0109,0.0092,0.0089,0.0086,0.0085,0.0064,0.006,0.0045,0.0042,0.0039,0.0056,0.0022,0.002,0.0022,0.0023,0.0082,0.0088,0.0093,0,0,0,0,0,0.0108,0.0122,0.0115,0.0116,0.011,0.011,0.0107,0.0095,0.0086,0.009,0.0079,0.0061,0.0048,0.0042,0.0037,0.0055,0.002,0.0021,0.0023,0.0079,0.0087,0.0093,0,0,0,0,0,0,0.012,0.0121,0.0114,0.0126,0.0121,0.0107,0.0111,0.01,0.0092,0.0092,0.0069,0.0065,0.007,0.0053,0.0046,0.0058,0.0031,0.0032,0.0076,0.0083,0.0088,0.0106,0.0021,0,0,0,0,0,0.0126,0.0136,0.0129,0.0138,0.0139,0.0124,0.0122,0.0115,0.0107,0.0103,0.009,0.0078,0.0073,0.0071,0.0061,0.0066,0.005,0.0075,0.008,0.0085,0.0097,0.0094,0.0101,0.0029,0.0029,0.0029,0,0,0.0132,0.0133,0.0138,0.0141,0.0136,0.015,0.0122,0.0126,0.014,0.0101,0.0115,0.0096,0.0078,0.0087,0.0088,0.0076,0.0095,0.0087,0.0092,0.0101,0.0097,0.0104,0.011,0.003,0.003,0.003,0,0,0.0156,0.0152,0.0172,0.0175,0.0175,0.0169,0.0173,0.0165,0.0163,0.0171,0.0149,0.0146,0.0133,0.013,0.0126,0.0156,0.0123,0.0147,0.0193,0.019,0.0196,0.0201,0.018,0.0183,0.0152,0.0152,0.0152,0,0.0165,0.0191,0.0176,0.0199,0.0211,0.0182,0.0211,0.0205,0.0198,0.021,0.0186,0.0184,0.016,0.0184,0.0187,0.0171,0.0154,0.0169,0.0198,0.0203,0.0207,0.0184,0.0187,0.0155,0.0155,0.0154,0.0154,0,0.0208,0.0229,0.0242,0.0264,0.0272,0.029,0.0286,0.0293,0.0284,0.0282,0.0298,0.0266,0.0272,0.0255,0.0226,0.0249,0.022,0.0204,0.0183,0.0218,0.0191,0.0193,0.016,0.0158,0.0157,0.0157,0,0,0.0232,0.0268,0.0273,0.0305,0.0312,0.0331,0.0353,0.0377,0.0413,0.0387,0.0434,0.0399,0.038,0.0373,0.0338,0.0322,0.032,0.0274,0.0272,0.0257,0.0299,0.0241,0.0236,0.0306,0.0306,0.0307,0.0264,0,0.0274,0.0339,0.034,0.0403,0.044,0.0431,0.0465,0.048,0.0482,0.0518,0.0483,0.0509,0.0427,0.0438,0.0407,0.0354,0.0328,0.0332,0.0264,0.0262,0.021,0.0238,0.0257,0.0218,0.0265,0.0265,0.0265,0,0.032,0.0363,0.0433,0.0499,0.0516,0.0545,0.0607,0.0637,0.0663,0.067,0.0673,0.0645,0.0629,0.0554,0.0473,0.0478,0.0392,0.0333,0.033,0.0259,0.0207,0.0191,0.0218,0.0267,0.0267,0.0267,0.0267,0,0.0362,0.043,0.0494,0.0514,0.0577,0.0613,0.065,0.0686,0.0749,0.0776,0.0829,0.0778,0.0789,0.0678,0.0533,0.0512,0.0432,0.0396,0.0259,0.0253,0.0249,0.0241,0.0334,0.0335,0.0335,0.0335,0.0335,0,0.0414,0.0467,0.0523,0.0563,0.0663,0.068,0.0788,0.0812,0.0885,0.0994,0.0921,0.0989,0.082,0.0749,0.059,0.0429,0.0477,0.0275,0.0246,0.0268,0.0263,0.029,0.0286,0.0333,0.0333,0.0334,0.0334,0,0.0453,0.0482,0.057,0.065,0.0686,0.0762,0.0893,0.0985,0.1026,0.1169,0.1194,0.1162,0.1063,0.0866,0.0691,0.0525,0.0364,0.0288,0.0308,0.0282,0.017,0.0169,0.015,0.0147,0.0145,0.0144,0.0142,0,0.0478,0.0524,0.0638,0.0714,0.0756,0.0874,0.0977,0.1052,0.1165,0.1291,0.138,0.1315,0.1288,0.0981,0.068,0.039,0.0346,0.0203,0.016,0.0181,0.0155,0.0157,0.0159,0.0176,0.0175,0.0174,0.0174,0,0.0536,0.057,0.0653,0.0805,0.0921,0.1068,0.1214,0.1322,0.1444,0.1553,0.1665,0.1643,0.1354,0.1053,0.0628,0.0431,0.0246,0.0176,0.0224,0.021,0.02,0.0176,0.0178,0.0167,0.0168,0.0168,0.0168,0.0169,0.0583,0.0656,0.0767,0.0916,0.1058,0.1245,0.1384,0.1546,0.1727,0.189,0.185,0.181,0.146,0.091,0.0557,0.0186,0.0212,0.007,0.0076,0.0081,0.0082,0.0069,0.001,0.001,0.001,0.001,0.001,0,0.0654,0.0743,0.0879,0.1061,0.1226,0.1294,0.1542,0.1679,0.1897,0.1996,0.2049,0.1698,0.1347,0.0945,0.04,0.0069,0.0056,-0.0051,0.0013,0.0023,0.003,0.0031,-0.0056,-0.0058,-0.0059,-0.006,0,0,0.0699,0.0834,0.0905,0.1169,0.1307,0.1548,0.1698,0.1895,0.2009,0.208,0.2043,0.1937,0.1453,0.1038,0.0587,0.0271,0.0223,0.0201,0.029,0.0429,0.0441,0.0134,0.0149,0,0,0,0,0]}],[{"header":{"parameterUnit":"m.s-1","parameterCategory":2,"la1":30.2991,"la2":30.254,"lo1":-89.0895,"lo2":-89.0444,"dy":0.0017,"dx":0.0017,"nx":28,"ny":28,"refTime":"2025-05-28T09:00:00:Z","depth":"4","parameterNumber":2,"parameterNumberName":"U-component_of_CURRENTS"},"data":[0,0,0,0,0,0,0,0,0,0,0,0,0,0,0,0,0,0,0,0,0,0,0,0,0,0,0,0,0,0,0,0,0,0,0,0,0,0,0,0,0,0,0,0,0,0,0,0,0,0,0,0,0,0,0,0,0,0,0.1766,0.1767,0,0.1813,0.1813,0.1813,0.1862,0.1863,0.1864,0.1865,0.1926,0.1927,0.1927,0,0,0,0,0,0,0,0,0,0,0,0,0,0.1718,0.1719,0.1766,0.1767,0.1768,0.1812,0.1813,0.1813,0.1862,0.1863,0.1864,0.1865,0.1926,0.1927,0.1928,0,0,0,0,0,0,0,0,0,0,0,0,0,0.1747,0.1719,0.1766,0.1799,0.1803,0.1812,0.1813,0.1813,0.1862,0.1863,0.1865,0.1866,0.1925,0.1926,0.1928,0.1908,0,0,0.1931,0.1932,0,0,0,0,0,0,0,0,0.1746,0.1749,0.1793,0.1797,0.1801,0.1835,0.1819,0.1847,0.1862,0.1837,0.1865,0.1867,0.1897,0.1901,0.1903,0.1911,0.1914,0.1931,0.1932,0.1933,0.1933,0,0,0,0,0,0,0,0.1744,0.1747,0.1782,0.1794,0.1799,0.1811,0.1817,0.1824,0.1858,0.1839,0.1844,0.1852,0.1899,0.1902,0.1905,0.1915,0.1931,0.1932,0.1933,0.1934,0.203,0.2032,0,0,0,0,0,0,0.1741,0.1745,0.1781,0.1784,0.1778,0.1811,0.1817,0.1821,0.1857,0.1865,0.1851,0.1854,0.1899,0.1904,0.1908,0.1998,0.1933,0.1934,0.1934,0.2028,0.2031,0.2033,0,0,0,0,0,0,0.1739,0.1743,0.1779,0.1768,0.1773,0.1811,0.1815,0.1821,0.1863,0.1866,0.1874,0.1891,0.19,0.1906,0.1949,0.1996,0.1934,0.1935,0.2026,0.2029,0.2032,0.2107,0,0,0,0,0,0,0.1738,0.1742,0.1764,0.1767,0.1774,0.181,0.1814,0.1821,0.1865,0.1871,0.1902,0.1907,0.1902,0.1947,0.195,0.1997,0.1936,0.2024,0.2027,0.2031,0.2102,0.2112,0.212,0,0,0,0,0,0.1736,0.175,0.1764,0.177,0.1795,0.1811,0.1816,0.1845,0.1866,0.1888,0.1913,0.1908,0.1972,0.1949,0.1952,0.2001,0.2022,0.2026,0.203,0.2098,0.211,0.212,0,0,0,0,0,0,0.1743,0.1757,0.1772,0.1793,0.1815,0.1821,0.185,0.1866,0.1902,0.1922,0.1924,0.193,0.1993,0.1981,0.1956,0.2039,0.1999,0.2004,0.205,0.2061,0.207,0.2067,0.1937,0,0,0,0,0,0.1753,0.1772,0.1785,0.1809,0.1822,0.1844,0.1863,0.1883,0.1905,0.1925,0.1949,0.1976,0.2004,0.2021,0.2043,0.2076,0.2083,0.2112,0.2121,0.2129,0.213,0.2196,0.2212,0.2046,0.2046,0.2046,0,0,0.1766,0.1776,0.179,0.1813,0.1835,0.1856,0.186,0.19,0.1926,0.1924,0.1986,0.2015,0.2022,0.2072,0.2098,0.2072,0.2179,0.2134,0.2141,0.2137,0.2202,0.2218,0.2233,0.2049,0.2049,0.2048,0,0,0.1782,0.1809,0.1827,0.1845,0.1883,0.1894,0.1914,0.1946,0.1976,0.2026,0.2042,0.2095,0.2133,0.2149,0.2158,0.2227,0.2232,0.2248,0.2285,0.235,0.2364,0.2377,0.2402,0.2416,0.2244,0.2244,0.2244,0,0.1804,0.1817,0.1838,0.1857,0.1872,0.1915,0.1932,0.1966,0.2014,0.2044,0.2062,0.2157,0.2166,0.222,0.2248,0.2248,0.2278,0.2242,0.2363,0.2375,0.2387,0.241,0.2424,0.2248,0.2248,0.2248,0.2247,0,0.1815,0.1843,0.1858,0.1892,0.1913,0.1942,0.1976,0.2025,0.2074,0.2112,0.2204,0.2234,0.2291,0.2309,0.2297,0.2387,0.238,0.2374,0.2334,0.2408,0.2427,0.2441,0.2254,0.2253,0.2252,0.2251,0,0,0.1811,0.1857,0.1867,0.188,0.1932,0.1941,0.2001,0.2053,0.2111,0.2189,0.226,0.2325,0.2378,0.2391,0.2408,0.2453,0.2555,0.2454,0.2456,0.2477,0.2691,0.2513,0.251,0.2588,0.2591,0.2594,0.2669,0,0.1818,0.1846,0.1869,0.1903,0.1914,0.1964,0.201,0.2073,0.215,0.2239,0.2306,0.2394,0.24,0.2452,0.2506,0.2552,0.2597,0.2533,0.2617,0.2618,0.245,0.2522,0.2603,0.268,0.2683,0.2685,0.2687,0,0.1809,0.1827,0.1855,0.1894,0.1906,0.1943,0.2023,0.2077,0.2207,0.2276,0.239,0.2462,0.2561,0.2553,0.268,0.2651,0.2681,0.27,0.2704,0.2518,0.2466,0.2592,0.2712,0.271,0.2708,0.2706,0.2705,0,0.1759,0.1808,0.1827,0.1841,0.1903,0.1936,0.1987,0.2102,0.217,0.2327,0.2415,0.2539,0.2635,0.2702,0.2764,0.2747,0.2882,0.2858,0.2718,0.2705,0.2809,0.2795,0.2942,0.2942,0.2941,0.2941,0.2941,0,0.1723,0.1742,0.1815,0.1821,0.1857,0.1917,0.2,0.2072,0.2219,0.2307,0.2453,0.2546,0.269,0.2784,0.2804,0.2803,0.2927,0.2731,0.272,0.2837,0.2825,0.2819,0.2803,0.2944,0.2943,0.2943,0.2942,0,0.1653,0.1708,0.1725,0.1799,0.1833,0.1859,0.1994,0.2053,0.2218,0.2342,0.2403,0.2601,0.2719,0.2815,0.2922,0.2847,0.2855,0.282,0.2933,0.2927,0.262,0.2608,0.2664,0.2659,0.2654,0.265,0.2647,0,0.161,0.1619,0.1695,0.171,0.1749,0.1824,0.1872,0.2031,0.2105,0.2346,0.2385,0.2581,0.2684,0.2705,0.2805,0.2825,0.2794,0.2763,0.2686,0.2612,0.2597,0.2592,0.2586,0.2639,0.2638,0.2637,0.2636,0,0.152,0.1569,0.1581,0.1623,0.1667,0.1707,0.1803,0.1851,0.2033,0.2212,0.2325,0.24,0.2528,0.2606,0.2647,0.2651,0.2759,0.2714,0.2723,0.265,0.2582,0.2571,0.2571,0.2619,0.2622,0.2623,0.2624,0,0.1455,0.1441,0.1483,0.1504,0.1552,0.1559,0.1628,0.1717,0.182,0.209,0.2121,0.2323,0.2505,0.2518,0.2549,0.2546,0.2504,0.2399,0.2423,0.2442,0.2333,0.2212,0.2133,0,0,0,0,0,0.1377,0.1356,0.136,0.1357,0.1401,0.1446,0.1559,0.1644,0.1841,0.1862,0.1993,0.2096,0.2185,0.2298,0.2251,0.2429,0.2492,0.2359,0.2378,0.253,0.2548,0.2438,0,0,0,0,0,0,0.1316,0.1324,0.1316,0.1246,0.1232,0.1265,0.1337,0.1463,0.1503,0.1721,0.1798,0.1958,0.2091,0.22,0.2214,0.224,0.2201,0.2487,0.2481,0.2519,0.2536,0.2551,0.2444,0,0,0,0,0]},{"header":{"parameterUnit":"m.s-1","parameterCategory":2,"la1":30.2991,"la2":30.254,"lo1":-89.0895,"lo2":-89.0444,"dy":0.0017,"dx":0.0017,"nx":28,"ny":28,"refTime":"2025-05-28T09:00:00:Z","depth":"4","parameterNumber":3,"parameterNumberName":"V-component_of_CURRENTS"},"data":[0,0,0,0,0,0,0,0,0,0,0,0,0,0,0,0,0,0,0,0,0,0,0,0,0,0,0,0,0,0,0,0,0,0,0,0,0,0,0,0,0,0,0,0,0,0,0,0,0,0,0,0,0,0,0,0,0,0,0.0092,0.0092,0,0.0078,0.0077,0.0077,0.0066,0.0066,0.0066,0.0066,0.0046,0.0046,0.0045,0,0,0,0,0,0,0,0,0,0,0,0,0,0.0084,0.0084,0.0092,0.0092,0.0092,0.0078,0.0077,0.0077,0.0066,0.0066,0.0066,0.0066,0.0046,0.0046,0.0045,0,0,0,0,0,0,0,0,0,0,0,0,0,0.0079,0.0084,0.0092,0.0085,0.0084,0.0078,0.0077,0.0077,0.0066,0.0066,0.0066,0.0066,0.0047,0.0046,0.0045,0.0042,0,0,0.0043,0.0043,0,0,0,0,0,0,0,0,0.008,0.008,0.0086,0.0085,0.0085,0.0074,0.0067,0.0065,0.0066,0.0072,0.0066,0.0066,0.0056,0.0054,0.0051,0.0041,0.004,0.0043,0.0042,0.0042,0.0042,0,0,0,0,0,0,0,0.008,0.008,0.0085,0.0086,0.0085,0.0074,0.0073,0.0067,0.0064,0.0071,0.0071,0.007,0.0055,0.0051,0.005,0.004,0.0043,0.0042,0.0042,0.0042,0.004,0.004,0,0,0,0,0,0,0.0085,0.0081,0.0086,0.0085,0.0083,0.0074,0.0074,0.0077,0.0064,0.0062,0.0071,0.007,0.0053,0.0051,0.0049,0.0067,0.0042,0.0041,0.0041,0.0039,0.004,0.004,0,0,0,0,0,0,0.0085,0.0086,0.0087,0.0083,0.0082,0.0075,0.0078,0.0077,0.0075,0.0063,0.0061,0.0071,0.0052,0.005,0.0052,0.0065,0.0041,0.004,0.0039,0.0039,0.004,0.0088,0,0,0,0,0,0,0.0085,0.0086,0.0091,0.0083,0.0083,0.0089,0.0078,0.0076,0.0076,0.0075,0.0063,0.0061,0.0052,0.0053,0.0052,0.0064,0.004,0.0038,0.0039,0.004,0.0086,0.009,0.0094,0,0,0,0,0,0.0085,0.0094,0.0091,0.0092,0.0089,0.0089,0.0088,0.0081,0.0076,0.0079,0.0074,0.0062,0.0056,0.0053,0.0051,0.0063,0.0038,0.0039,0.004,0.0084,0.0089,0.0094,0,0,0,0,0,0,0.0092,0.0094,0.009,0.0099,0.0097,0.0088,0.0091,0.0084,0.0082,0.0082,0.0068,0.0066,0.0071,0.0059,0.0056,0.0064,0.0045,0.0045,0.0079,0.0084,0.0088,0.0101,0.0039,0,0,0,0,0,0.0097,0.0105,0.0101,0.0108,0.0109,0.0099,0.0098,0.0095,0.0091,0.0089,0.0082,0.0075,0.0072,0.0072,0.0066,0.0071,0.0047,0.0076,0.008,0.0084,0.0093,0.0069,0.0071,0.0043,0.0043,0.0043,0,0,0.0101,0.0103,0.0107,0.011,0.0107,0.0119,0.0099,0.0102,0.0115,0.0088,0.0103,0.0088,0.0076,0.0084,0.0085,0.0077,0.0076,0.0085,0.0088,0.0095,0.007,0.0073,0.0075,0.0044,0.0044,0.0043,0,0,0.0118,0.0117,0.0131,0.0135,0.0136,0.0133,0.0136,0.0131,0.0132,0.0141,0.0126,0.0122,0.0117,0.0114,0.0111,0.0132,0.0097,0.0125,0.0159,0.0136,0.0138,0.014,0.0101,0.0099,0.0129,0.0129,0.0129,0,0.0125,0.0145,0.0135,0.0152,0.0165,0.0143,0.0168,0.0163,0.0161,0.0171,0.0154,0.015,0.0135,0.0149,0.0154,0.0142,0.0115,0.0144,0.0141,0.0142,0.0143,0.0104,0.0101,0.0131,0.0131,0.0131,0.0131,0,0.0155,0.0173,0.0183,0.0202,0.0211,0.0227,0.0226,0.0232,0.0227,0.0227,0.0236,0.021,0.0211,0.02,0.0184,0.0187,0.0159,0.0147,0.0131,0.0149,0.0106,0.0102,0.0135,0.0134,0.0133,0.0133,0,0,0.017,0.02,0.0205,0.0233,0.0244,0.0261,0.028,0.03,0.0326,0.0304,0.0332,0.031,0.029,0.0285,0.0257,0.0232,0.0205,0.0194,0.0192,0.0159,0.0138,0.0118,0.0111,0.0189,0.0189,0.0189,0.0101,0,0.02,0.0251,0.0257,0.0311,0.0342,0.0339,0.037,0.0383,0.0382,0.0399,0.0365,0.0376,0.0325,0.0325,0.0292,0.0231,0.0199,0.0229,0.0123,0.012,0.0102,0.0108,0.0189,0.0098,0.0097,0.0097,0.0096,0,0.0231,0.0268,0.0327,0.0389,0.0403,0.0432,0.0483,0.0508,0.0516,0.0517,0.0504,0.0469,0.0434,0.0387,0.0285,0.0304,0.0228,0.0171,0.0166,0.013,0.0093,0.0078,0.0089,0.0089,0.009,0.009,0.0091,0,0.0259,0.0319,0.0375,0.0394,0.0452,0.0486,0.0521,0.0547,0.0592,0.0589,0.0609,0.0549,0.0531,0.0427,0.0295,0.029,0.0172,0.0153,0.006,0.0057,0.008,0.0079,0.0084,0.0084,0.0084,0.0084,0.0084,0,0.0294,0.0341,0.0396,0.043,0.0517,0.0539,0.0629,0.0644,0.0687,0.0743,0.0675,0.0684,0.054,0.0448,0.0319,0.0174,0.0187,0.0067,0.0038,0.01,0.0103,0.0076,0.0077,0.0081,0.0082,0.0082,0.0083,0,0.0317,0.0347,0.0421,0.0497,0.0532,0.0597,0.0713,0.0777,0.0796,0.0858,0.086,0.079,0.0664,0.0504,0.0331,0.0218,0.0074,0.0019,0.0088,0.0064,-0.0034,-0.0031,-0.0088,-0.009,-0.0091,-0.0092,-0.0092,0,0.0332,0.0369,0.0474,0.0536,0.0577,0.0683,0.0767,0.083,0.0895,0.0918,0.0946,0.0846,0.0771,0.0519,0.0336,0.0084,0.0048,-0.0036,-0.0029,-0.0027,-0.005,-0.0044,-0.0039,-0.0094,-0.0095,-0.0095,-0.0095,0,0.0367,0.04,0.0468,0.059,0.0686,0.0811,0.0919,0.0974,0.1036,0.1049,0.1021,0.0882,0.0741,0.0526,0.0328,0.0147,0.0013,-0.0049,-0.0047,-0.0042,-0.0035,-0.0055,-0.0049,-0.0099,-0.0099,-0.0098,-0.0098,0,0.0395,0.0447,0.0533,0.0648,0.0771,0.0894,0.0957,0.1032,0.1096,0.1101,0.1083,0.0922,0.0828,0.0558,0.0375,0.0193,0.0145,0.0081,0.0074,0.0076,0.0144,0.0179,0.016,0,0,0,0,0,0.0424,0.0489,0.059,0.0715,0.0836,0.0914,0.1042,0.1093,0.1136,0.1128,0.111,0.0972,0.0703,0.059,0.0407,0.034,0.0104,0.0116,0.0025,-0.0121,-0.0116,-0.0067,0,0,0,0,0,0,0.0446,0.0536,0.059,0.0749,0.0843,0.0988,0.1075,0.111,0.1109,0.111,0.0979,0.0908,0.0655,0.0804,0.0396,0.0341,0.0253,-0.0006,-0.0011,-0.0124,-0.0119,-0.0116,-0.0063,0,0,0,0,0]}]]